CZ-6A DEB, 54298

Orbit data source: Space-Track

CZ-6A DEB, 54298 is space debris in SSO originally from a launch on Fri, 11 Nov 2022 UTC launched from the Taiyaun Space Center, China (TSC). Debris objects in space refer to the collection of defunct objects orbiting the Earth. Examples of debris include non-operational satellites, rocket bodies, and fragments generated from explosions, collisions, or faulty payload assembly.

Loading next visibility...
Identifier
54298, 2022-151AR
Orbit
SSO
Country
Flag of CNCN / PRC
Related business
Manufacturer
SAST
Mission
Spacecraft
Bus & Motor
Unknown
Mass
Unknown
Launch date (UTC)
2022-11-11 (4 years ago)
Launch vehicle
Unknown
Launch site
Taiyaun Space Center, China (TSC)
Object type
Payload
Rocket body
Debris
Shape & HBR
Unknown shape, 0.1 m
Radar Cross Section
Medium (>0.1 m² and <1 m²)

Expand to show TLE details & history
Last TLE update: 10 hours ago

TLE from 10 hours ago
0 CZ-6A DEB
1 54298U 22151AR  26235.94749155  .00000165  00000-0  12274-3 0  9992
2 54298  98.8395 222.4593 0061791 169.3295 190.9201 14.06951776193560
Epoch: 2026-08-23T22:44Z
TLE epoch observation values (Epoch: 2026-08-23T22:44:23.269Z)
Latitude
-0.00005°
Longitude
-90.87388°
Altitude
916.708 km
Speed
7.371 km/s
True Right ascension
14h 49m 50s
True Declination
0° 00' 00"
Sunlit
Object was in daylight at epoch
Visualization orbit readout
Latitude
Unknown
Longitude
Unknown
Altitude
Unknown
Speed
Unknown
Apparent Right ascension
Unknown
Apparent Declination
Unknown
Sunlit
N/A
Visualization observer readout
Local Sidereal Time
23:55:37
Azimuth
Unknown
Elevation
Unknown
Doppler factor
Unknown
Orbital elements
Apogee altitude
911.772 km
Perigee altitude
822.235 km
Semi-major axis
7,245.141 km
Eccentricity
0.00618
Inclination
98.8395°
RAAN
222.4593°
Arg. of periapsis
169.3295°
True anomaly
190.78697°
Mean anomaly
190.9201°
Eccentric anomaly
190.85344°
Mean motion
3.51943 °/min
Orbital period
102.29 mins
BSTAR
0.00012274
Loading maneuver chart data...
Computing Atmospheric mass density...
Loading historical data...
Loading historical data...
Loading historical data...
Loading historical data...
Loading historical data...
Loading historical data...
Loading historical data...

Documentation

Showing up to 5 results
|